DW1084 Weather Reports


time (UTC)temp
F
wind
direction
speed
knots
gust
knots
rain 1hr
in
rain 24hr
in
rain mn
in
humidity
%
barometer
mb
20260505051522 57 137 0.0 0.0 0.00 0.00 0.00 70 1009.1
20260505041540 58 136 1.7 0.0 0.00 0.00 0.00 65 1008.8
20260505040040 58 136 1.7 0.0 0.00 0.00 0.00 63 1008.8
20260505034519 58 138 1.7 0.0 0.00 0.00 0.00 62 1008.8
20260505033052 59 130 1.7 0.0 0.00 0.00 0.00 61 1008.9
20260505031531 59 134 1.7 0.0 0.00 0.00 0.00 59 1008.9
20260505030007 59 130 1.7 0.0 0.00 0.00 0.00 59 1008.9
20260505024551 59 126 1.7 0.0 0.00 0.00 0.00 58 1009.0
20260505023021 60 136 0.9 0.0 0.00 0.00 0.00 57 1008.9
20260505021601 60 136 0.9 0.0 0.00 0.00 0.00 57 1009.1
20260505021502 60 136 0.9 0.0 0.00 0.00 0.00 57 1009.1
20260505020036 60 136 0.9 0.0 0.00 0.00 0.00 55 1009.2
20260505014516 61 136 1.7 0.0 0.00 0.00 0.00 55 1009.2
20260505013104 61 133 0.9 0.0 0.00 0.00 0.00 54 1009.0
20260505011532 62 131 0.9 0.0 0.00 0.00 0.00 52 1008.7
20260505010009 63 131 0.9 0.0 0.00 0.00 0.00 50 1008.7
20260505004543 63 134 1.7 0.0 0.00 0.00 0.00 50 1008.6
20260505003024 64 145 1.7 0.0 0.00 0.00 0.00 48 1008.5
20260505001604 65 131 1.7 0.0 0.00 0.00 0.00 47 1008.3
20260505000044 66 129 0.9 0.0 0.00 0.00 0.00 45 1008.2
20260504234521 68 132 1.7 0.0 0.00 0.00 0.00 42 1008.2
20260504233106 70 127 2.6 0.0 0.00 0.00 0.00 41 1008.2
20260504231531 71 132 2.6 0.0 0.00 0.00 0.00 39 1008.3
20260504230007 72 133 2.6 0.0 0.00 0.00 0.00 38 1008.3
20260504224549 72 126 2.6 0.0 0.00 0.00 0.00 39 1008.3
20260504223021 73 126 2.6 0.0 0.00 0.00 0.00 37 1008.2
20260504221600 73 136 2.6 0.0 0.00 0.00 0.00 36 1008.2
20260504221501 73 130 2.6 0.0 0.00 0.00 0.00 35 1008.2
20260504220035 73 128 3.5 0.0 0.00 0.00 0.00 38 1008.3
20260504214515 73 132 3.5 0.0 0.00 0.00 0.00 36 1008.4
20260504213055 73 140 3.5 0.0 0.00 0.00 0.00 34 1008.4
20260504211530 74 124 3.5 0.0 0.00 0.00 0.00 35 1008.5
20260504210009 74 123 3.5 0.0 0.00 0.00 0.00 36 1008.5
20260504204548 74 138 4.3 0.0 0.00 0.00 0.00 35 1008.4
20260504203025 74 119 2.6 0.0 0.00 0.00 0.00 33 1008.5
20260504201555 74 151 3.5 0.0 0.00 0.00 0.00 33 1008.7
20260504200035 75 192 2.6 0.0 0.00 0.00 0.00 37 1009.0
20260504194516 74 117 3.5 0.0 0.00 0.00 0.00 36 1009.3
20260504193051 74 111 2.6 0.0 0.00 0.00 0.00 36 1009.4
20260504191529 73 126 2.6 0.0 0.00 0.00 0.00 39 1009.7
20260504190004 73 141 2.6 0.0 0.00 0.00 0.00 35 1009.8
20260504184543 73 121 3.5 0.0 0.00 0.00 0.00 35 1009.9
20260504183020 73 157 1.7 0.0 0.00 0.00 0.00 37 1009.9
20260504181558 73 269 2.6 0.0 0.00 0.00 0.00 40 1010.4
20260504180033 71 161 3.5 0.0 0.00 0.00 0.00 39 1010.5
20260504174513 72 169 2.6 0.0 0.00 0.00 0.00 39 1010.6
20260504173056 72 136 1.7 0.0 0.00 0.00 0.00 40 1010.7
20260504171527 72 213 3.5 0.0 0.00 0.00 0.00 39 1011.0
20260504081600 40 308 0.0 0.0 0.00 0.00 0.00 78 1013.8